Location: Newark
(41.6500°N, 71.4833°W)
Time: 22:11:41
(UTC+00:00)

Envisat - Visible Passes

Search period start: 27 January 2021 00:00
Search period end: 06 February 2021 00:00
Orbit: 764 x 766 km, 98.1° (Epoch: 27 January)

Date Brightness Start Highest point End Pass type
(mag) Time Alt. Az. Time Alt. Az. Time Alt. Az.
27 Jan 4.2 10:03:36 10° NNE 10:08:27 43° E 10:13:15 10° S visible
27 Jan 6.0 22:59:18 10° SW 23:02:29 17° W 23:05:42 10° NW visible
28 Jan 5.6 09:27:42 10° NE 09:31:22 20° E 09:35:01 10° SE visible
28 Jan 3.2 11:05:45 10° N 11:10:39 49° WNW 11:15:30 10° SW visible
28 Jan 4.9 22:20:43 10° SSW 22:25:22 36° W 22:30:04 10° NNW visible
29 Jan 3.2 10:28:48 10° NNE 10:33:54 76° ESE 10:38:58 10° S visible
30 Jan 4.7 09:52:21 10° NNE 09:56:58 34° E 10:01:33 10° SSE visible
30 Jan 3.8 11:31:32 10° N 11:35:52 29° WNW 11:40:11 10° SW visible
30 Jan 5.9 22:47:10 10° SW 22:50:58 21° W 22:54:47 10° NW visible
31 Jan 5.9 09:16:52 10° NE 09:19:50 15° E 09:22:47 10° SE visible
31 Jan 3.0 10:54:15 10° N 10:59:16 62° WNW 11:04:16 10° SSW visible
01 Feb 3.6 10:17:26 10° NNE 10:22:28 60° E 10:27:28 10° S visible
01 Feb 6.4 23:14:52 10° WSW 23:16:40 12° W 23:18:27 10° WNW visible
02 Feb 5.1 09:41:12 10° NE 09:45:29 27° E 09:49:45 10° SSE visible
02 Feb 3.5 11:19:55 10° N 11:24:32 36° WNW 11:29:08 10° SW visible
02 Feb 5.5 22:35:12 10° SSW 22:39:27 27° W 22:43:44 10° NW visible
03 Feb 6.2 09:06:26 10° ENE 09:08:17 12° E 09:10:08 10° ESE visible
03 Feb 2.9 10:42:47 10° N 10:47:53 79° WNW 10:52:57 10° SSW visible
04 Feb 4.1 10:06:07 10° NNE 10:11:02 47° E 10:15:54 10° S visible
04 Feb 6.1 23:02:11 10° SW 23:05:06 15° W 23:08:02 10° NW visible
05 Feb 5.5 09:30:07 10° NE 09:33:58 21° E 09:37:48 10° SE visible
05 Feb 3.3 11:08:21 10° N 11:13:11 45° WNW 11:18:00 10° SW visible
